SWR5YW LIRF-LSZH

Flight info

Callsign SWR5YW
Flight time N/A
Altitude 36000
Route SOVAN DCT AMTEL DCT PEPAG DCT CANNE Z651 DETRI/N0437F300 Z651 KELIP
Aircraft A321/M-SDE3FGHIRWY/LB1

Departure

Time N/A
Airport Rome–Fiumicino Leonardo da Vinci International Airport (LIRF)

Arrival

Time 2026-05-04 14:58
Airport Zürich Airport (LSZH)
Time Latitude Longitude Altitude Speed Heading
2026-05-04 14:34 45.94856 9.10572 36096 ft 442 kts 324°
2026-05-04 14:35 45.99616 9.05923 36102 ft 442 kts 323°
2026-05-04 14:35 46.03787 9.01661 36100 ft 442 kts 322°
2026-05-04 14:36 46.08739 8.96427 36094 ft 442 kts 322°
2026-05-04 14:36 46.13742 8.91256 36095 ft 443 kts 327°
2026-05-04 14:37 46.19458 8.87903 36097 ft 448 kts 346°
2026-05-04 14:37 46.22529 8.87197 35721 ft 448 kts 352°
2026-05-04 14:37 46.25638 8.86717 35033 ft 450 kts 352°
2026-05-04 14:37 46.28753 8.86262 34348 ft 451 kts 353°
2026-05-04 14:38 46.31885 8.85811 33661 ft 453 kts 353°
2026-05-04 14:38 46.35028 8.85357 32960 ft 454 kts 353°
2026-05-04 14:38 46.38178 8.84896 32233 ft 455 kts 353°
2026-05-04 14:38 46.41333 8.84427 31451 ft 457 kts 353°
2026-05-04 14:39 46.44507 8.83946 30650 ft 459 kts 352°
2026-05-04 14:39 46.47689 8.83462 29847 ft 461 kts 353°
2026-05-04 14:39 46.50885 8.82979 29017 ft 463 kts 353°
2026-05-04 14:40 46.57270 8.82015 27729 ft 457 kts 353°
2026-05-04 14:40 46.60421 8.81538 27104 ft 453 kts 353°
2026-05-04 14:40 46.63542 8.81062 26488 ft 449 kts 353°
2026-05-04 14:40 46.66639 8.80588 25861 ft 446 kts 353°
2026-05-04 14:41 46.69711 8.80121 25244 ft 442 kts 353°
2026-05-04 14:41 46.72754 8.79656 24623 ft 438 kts 352°
2026-05-04 14:41 46.78766 8.78743 23369 ft 431 kts 353°
2026-05-04 14:42 46.84688 8.77845 22048 ft 426 kts 353°
2026-05-04 14:42 46.87636 8.77391 21300 ft 426 kts 353°
2026-05-04 14:42 46.90580 8.76934 20550 ft 425 kts 353°
2026-05-04 14:43 46.93522 8.76478 19800 ft 424 kts 353°
2026-05-04 14:43 46.96451 8.76030 19039 ft 423 kts 353°
2026-05-04 14:43 46.99371 8.75580 18297 ft 421 kts 353°
2026-05-04 14:43 47.02282 8.75121 17541 ft 420 kts 353°
2026-05-04 14:44 47.05176 8.74657 16794 ft 418 kts 353°
2026-05-04 14:44 47.08056 8.74162 16046 ft 416 kts 351°
2026-05-04 14:44 47.10912 8.73525 15288 ft 414 kts 349°
2026-05-04 14:44 47.13701 8.72790 14565 ft 412 kts 348°
2026-05-04 14:45 47.16512 8.71992 13817 ft 410 kts 348°
2026-05-04 14:45 47.19305 8.71186 13080 ft 408 kts 348°
2026-05-04 14:45 47.22088 8.70398 12328 ft 406 kts 349°
2026-05-04 14:45 47.24800 8.69316 11584 ft 403 kts 336°
2026-05-04 14:46 47.27184 8.67212 10864 ft 399 kts 320°
2026-05-04 14:46 47.29134 8.64340 10222 ft 393 kts 312°
2026-05-04 14:46 47.30963 8.61454 10015 ft 377 kts 313°
2026-05-04 14:46 47.32711 8.58687 9839 ft 359 kts 313°
2026-05-04 14:47 47.34335 8.56115 9687 ft 325 kts 313°
2026-05-04 14:47 47.35810 8.53783 9511 ft 301 kts 313°
2026-05-04 14:47 47.37227 8.51538 9209 ft 297 kts 313°
2026-05-04 14:47 47.38629 8.49310 8824 ft 295 kts 313°
2026-05-04 14:48 47.40016 8.47109 8470 ft 292 kts 313°
2026-05-04 14:48 47.41394 8.44925 8100 ft 290 kts 313°
2026-05-04 14:48 47.42763 8.42751 7726 ft 288 kts 313°
2026-05-04 14:48 47.44123 8.40590 7353 ft 286 kts 313°
2026-05-04 14:49 47.45469 8.38444 6978 ft 284 kts 313°
2026-05-04 14:49 47.46805 8.36312 6607 ft 281 kts 313°
2026-05-04 14:49 47.48135 8.34193 6236 ft 280 kts 313°
2026-05-04 14:49 47.49456 8.32088 5857 ft 278 kts 313°
2026-05-04 14:50 47.50768 8.29994 5485 ft 278 kts 314°
2026-05-04 14:50 47.52128 8.27982 5107 ft 275 kts 316°
2026-05-04 14:50 47.53517 8.26061 4772 ft 273 kts 317°
2026-05-04 14:50 47.54917 8.24172 4477 ft 272 kts 318°
2026-05-04 14:51 47.56303 8.22305 4194 ft 271 kts 318°
2026-05-04 14:51 47.57721 8.20473 4007 ft 269 kts 326°
2026-05-04 14:51 47.59398 8.19410 4001 ft 255 kts 350°
2026-05-04 14:51 47.61103 8.19385 4014 ft 239 kts 12°
2026-05-04 14:52 47.62634 8.20285 4018 ft 237 kts 34°
2026-05-04 14:52 47.63818 8.21944 4009 ft 235 kts 56°
2026-05-04 14:52 47.64507 8.24124 4015 ft 235 kts 77°
2026-05-04 14:52 47.64610 8.26525 4016 ft 235 kts 98°
2026-05-04 14:53 47.64145 8.28841 4017 ft 235 kts 112°
2026-05-04 14:53 47.63539 8.31042 4022 ft 226 kts 112°
2026-05-04 14:53 47.62912 8.33084 4016 ft 212 kts 122°
2026-05-04 14:53 47.61973 8.34727 4017 ft 208 kts 137°
2026-05-04 14:54 47.60912 8.36181 4005 ft 207 kts 137°
2026-05-04 14:54 47.59860 8.37630 3999 ft 206 kts 137°
2026-05-04 14:54 47.58808 8.39077 4009 ft 207 kts 137°
2026-05-04 14:54 47.57755 8.40524 3912 ft 203 kts 137°
2026-05-04 14:55 47.56748 8.41906 3679 ft 192 kts 137°
2026-05-04 14:55 47.55786 8.43230 3432 ft 185 kts 137°
2026-05-04 14:55 47.54860 8.44502 3191 ft 179 kts 137°
2026-05-04 14:55 47.53961 8.45734 2978 ft 170 kts 137°
2026-05-04 14:56 47.53113 8.46892 2742 ft 163 kts 137°
2026-05-04 14:56 47.52313 8.47988 2524 ft 153 kts 137°
2026-05-04 14:56 47.51547 8.49037 2337 ft 147 kts 137°
2026-05-04 14:56 47.50799 8.50062 2138 ft 146 kts 137°
2026-05-04 14:57 47.50055 8.51079 1946 ft 146 kts 137°
2026-05-04 14:57 47.49319 8.52091 1749 ft 143 kts 136°
2026-05-04 14:57 47.48592 8.53091 1574 ft 144 kts 137°
2026-05-04 14:57 47.47852 8.54093 1410 ft 141 kts 138°
2026-05-04 14:58 47.47202 8.54974 1383 ft 104 kts 137°
2026-05-04 14:58 47.46816 8.55505 1401 ft 44 kts 137°
2026-05-04 14:58 47.46659 8.55659 1394 ft 25 kts 161°
2026-05-04 14:58 47.46499 8.55714 1395 ft 23 kts 168°
2026-05-04 14:59 47.46362 8.55786 1409 ft 19 kts 141°
2026-05-04 14:59 47.46288 8.55885 1407 ft 12 kts 143°
2026-05-04 14:59 47.46207 8.55786 1409 ft 7 kts 193°
2026-05-04 15:00 47.46167 8.55781 1405 ft 5 kts 185°
2026-05-04 15:00 47.46148 8.55778 1403 ft 2 kts 186°
2026-05-04 15:00 47.46147 8.55778 1407 ft 0 kts 186°